Location: Cheyres
(46.8153°N, 6.7877°E)
Time: 04:09:16
(UTC+00:00)

N. Korean satellite - Pass Details

Date: 24 January 2022
Orbit: 438 x 478 km, 97.3° (Epoch: 21 May)

Event Time Altitude Azimuth Distance (km) Brightness Sun altitude
Rises 03:41:13 0° 31° (NNE) 2,631 10.8 -34.9°
Reaches altitude 10° 03:44:16 10° 59° (ENE) 1,742 10.1 -34.4°
Maximum altitude 03:46:11 14° 90° (E) 1,527 9.8 -34.1°
Drops below altitude 10° 03:48:06 10° 121° (ESE) 1,734 9.9 -33.7°
Enters shadow 03:48:55 - 131° (SE) 1,925 10.0 -33.6°
Exits shadow 03:49:20 - 135° (SE) 2,039 10.1 -33.5°
Sets 03:51:07 0° 148° (SSE) 2,608 10.6 -33.2°
